| time (UTC) | temp F | wind direction | speed MPH | gust MPH | rain 1hr in | rain 24hr in | rain mn in | humidity % | barometer mb |
| 20260510081519 | 52 | 36 | 0.0 | 0.0 | 0.06 | 0.65 | 0.17 | 97 | 1011.6 |
| 20260510080017 | 52 | 36 | 0.0 | 0.0 | 0.06 | 0.65 | 0.17 | 97 | 1011.5 |
| 20260510074516 | 52 | 36 | 0.0 | 0.0 | 0.06 | 0.77 | 0.17 | 97 | 1011.4 |
| 20260510073014 | 52 | 36 | 0.0 | 1.0 | 0.00 | 0.71 | 0.11 | 97 | 1011.2 |
| 20260510071519 | 52 | 36 | 0.0 | 0.0 | 0.00 | 0.71 | 0.11 | 97 | 1011.1 |
| 20260510070013 | 52 | 36 | 0.0 | 1.0 | 0.00 | 0.71 | 0.11 | 97 | 1010.9 |
| 20260510064512 | 52 | 33 | 0.0 | 1.0 | 0.01 | 0.84 | 0.11 | 97 | 1010.9 |
| 20260510063013 | 52 | 292 | 0.0 | 2.0 | 0.07 | 0.84 | 0.11 | 97 | 1011.1 |
| 20260510061514 | 52 | 221 | 0.0 | 2.0 | 0.07 | 0.84 | 0.11 | 97 | 1011.2 |
| 20260510060008 | 52 | 222 | 0.0 | 0.0 | 0.07 | 0.84 | 0.11 | 97 | 1011.0 |
| 20260510054508 | 51 | 222 | 0.0 | 1.0 | 0.03 | 0.81 | 0.07 | 97 | 1011.0 |
| 20260510053005 | 51 | 223 | 0.0 | 0.0 | 0.00 | 0.78 | 0.04 | 97 | 1010.8 |
| 20260510051503 | 51 | 223 | 0.0 | 0.0 | 0.04 | 0.78 | 0.04 | 96 | 1011.0 |
| 20260510050003 | 51 | 223 | 0.0 | 0.0 | 0.04 | 0.78 | 0.04 | 96 | 1011.2 |
| 20260510044612 | 51 | 223 | 0.0 | 0.0 | 0.04 | 0.78 | 0.04 | 96 | 1011.2 |
| 20260510043110 | 51 | 223 | 0.0 | 0.0 | 0.04 | 0.78 | 0.04 | 96 | 1011.0 |
| 20260510041605 | 51 | 227 | 0.0 | 0.0 | 0.04 | 0.74 | 0.00 | 96 | 1011.0 |
| 20260510040058 | 51 | 227 | 0.0 | 1.0 | 0.04 | 0.74 | 0.00 | 96 | 1011.1 |
| 20260510034558 | 51 | 227 | 0.0 | 1.0 | 0.04 | 0.74 | 0.74 | 96 | 1011.2 |
| 20260510033121 | 51 | 227 | 0.0 | 1.0 | 0.04 | 0.74 | 0.74 | 96 | 1011.2 |
| 20260510031619 | 51 | 227 | 0.0 | 1.0 | 0.00 | 0.70 | 0.70 | 96 | 1011.4 |
| 20260510030100 | 51 | 227 | 0.0 | 0.0 | 0.00 | 0.70 | 0.70 | 96 | 1011.6 |
| 20260510024556 | 51 | 227 | 0.0 | 0.0 | 0.00 | 0.70 | 0.70 | 96 | 1011.8 |
| 20260510023055 | 51 | 227 | 0.0 | 0.0 | 0.06 | 0.70 | 0.70 | 96 | 1012.2 |
| 20260510021554 | 51 | 227 | 0.0 | 0.0 | 0.06 | 0.70 | 0.70 | 96 | 1012.4 |
| 20260510020054 | 51 | 228 | 0.0 | 0.0 | 0.06 | 0.70 | 0.70 | 96 | 1012.5 |
| 20260510014605 | 52 | 228 | 0.0 | 0.0 | 0.06 | 0.70 | 0.70 | 95 | 1012.7 |
| 20260510013053 | 52 | 228 | 0.0 | 0.0 | 0.05 | 0.64 | 0.64 | 95 | 1012.6 |
| 20260510011559 | 52 | 228 | 0.0 | 0.0 | 0.05 | 0.64 | 0.64 | 95 | 1012.7 |
| 20260510010101 | 52 | 228 | 0.0 | 2.0 | 0.06 | 0.64 | 0.64 | 95 | 1012.8 |
| 20260510004556 | 53 | 236 | 0.0 | 1.0 | 0.03 | 0.59 | 0.59 | 95 | 1012.8 |
| 20260510003059 | 53 | 236 | 0.0 | 3.0 | 0.03 | 0.59 | 0.59 | 95 | 1012.7 |
| 20260510001551 | 53 | 122 | 0.0 | 2.0 | 0.03 | 0.59 | 0.59 | 95 | 1012.7 |
| 20260510000054 | 54 | 124 | 0.0 | 2.0 | 0.02 | 0.57 | 0.57 | 95 | 1012.7 |
| 20260509234605 | 54 | 143 | 0.0 | 2.0 | 0.00 | 0.56 | 0.56 | 95 | 1012.6 |
| 20260509233049 | 54 | 143 | 0.0 | 0.0 | 0.00 | 0.56 | 0.56 | 95 | 1012.6 |
| 20260509231549 | 54 | 144 | 0.0 | 1.0 | 0.00 | 0.56 | 0.56 | 95 | 1012.6 |
| 20260509230048 | 54 | 144 | 0.0 | 1.0 | 0.00 | 0.56 | 0.56 | 95 | 1012.5 |
| 20260509224547 | 54 | 200 | 0.0 | 1.0 | 0.00 | 0.56 | 0.56 | 94 | 1012.4 |
| 20260509223056 | 54 | 208 | 0.0 | 4.0 | 0.00 | 0.56 | 0.56 | 94 | 1012.3 |
| 20260509221550 | 55 | 241 | 0.0 | 2.0 | 0.00 | 0.56 | 0.56 | 94 | 1012.4 |
| 20260509220057 | 55 | 119 | 0.0 | 1.0 | 0.00 | 0.56 | 0.56 | 93 | 1012.0 |
| 20260509214546 | 55 | 132 | 0.0 | 3.0 | 0.00 | 0.56 | 0.56 | 93 | 1011.9 |
| 20260509213045 | 55 | 126 | 0.0 | 2.0 | 0.00 | 0.56 | 0.56 | 92 | 1012.0 |
| 20260509211545 | 56 | 187 | 0.0 | 5.0 | 0.00 | 0.56 | 0.56 | 90 | 1011.9 |
| 20260509210043 | 57 | 158 | 1.0 | 3.0 | 0.00 | 0.56 | 0.56 | 87 | 1011.6 |
| 20260509204556 | 58 | 65 | 1.0 | 4.0 | 0.00 | 0.57 | 0.56 | 81 | 1011.4 |
| 20260509203041 | 59 | 218 | 2.0 | 8.0 | 0.00 | 0.57 | 0.56 | 81 | 1011.4 |
| 20260509201542 | 59 | 192 | 2.0 | 6.0 | 0.00 | 0.57 | 0.56 | 80 | 1011.4 |
| 20260509200043 | 59 | 360 | 1.0 | 6.0 | 0.00 | 0.57 | 0.56 | 75 | 1011.4 |
| 20260509194543 | 60 | 161 | 0.0 | 5.0 | 0.00 | 0.64 | 0.56 | 75 | 1011.5 |
| 20260509193043 | 60 | 106 | 0.0 | 2.0 | 0.00 | 0.64 | 0.56 | 76 | 1011.4 |
| 20260509191538 | 60 | 130 | 2.0 | 5.0 | 0.01 | 0.64 | 0.56 | 76 | 1011.5 |
| 20260509190036 | 59 | 321 | 1.0 | 4.0 | 0.01 | 0.64 | 0.56 | 78 | 1011.5 |
| 20260509184537 | 59 | 126 | 1.0 | 3.0 | 0.01 | 0.78 | 0.56 | 79 | 1011.7 |
| 20260509183033 | 58 | 138 | 0.0 | 4.0 | 0.01 | 0.78 | 0.56 | 80 | 1011.9 |
| 20260509181534 | 57 | 133 | 1.0 | 4.0 | 0.00 | 0.77 | 0.55 | 84 | 1011.9 |
| 20260509180030 | 56 | 327 | 0.0 | 2.0 | 0.00 | 0.77 | 0.55 | 86 | 1012.0 |
| 20260509174530 | 56 | 327 | 0.0 | 3.0 | 0.00 | 0.78 | 0.55 | 84 | 1011.9 |
| 20260509173029 | 56 | 119 | 2.0 | 6.0 | 0.00 | 0.78 | 0.55 | 81 | 1012.9 |
| 20260509171530 | 57 | 142 | 1.0 | 4.0 | 0.00 | 0.78 | 0.55 | 77 | 1012.7 |
| 20260509170029 | 59 | 127 | 1.0 | 4.0 | 0.00 | 0.78 | 0.55 | 73 | 1012.7 |
| 20260509164526 | 59 | 131 | 1.0 | 4.0 | 0.00 | 0.78 | 0.55 | 72 | 1012.4 |
| 20260509163029 | 59 | 102 | 2.0 | 10.0 | 0.00 | 0.78 | 0.55 | 73 | 1012.6 |
| 20260509161525 | 59 | 109 | 2.0 | 8.0 | 0.00 | 0.78 | 0.55 | 71 | 1012.5 |
| 20260509160022 | 59 | 84 | 0.0 | 5.0 | 0.00 | 0.78 | 0.55 | 75 | 1012.7 |
| 20260509154519 | 59 | 129 | 1.0 | 3.0 | 0.00 | 0.79 | 0.55 | 76 | 1012.9 |
| 20260509153014 | 58 | 132 | 2.0 | 6.0 | 0.00 | 0.79 | 0.55 | 76 | 1013.0 |
| 20260509151510 | 56 | 129 | 0.0 | 4.0 | 0.00 | 0.79 | 0.55 | 82 | 1013.2 |
| 20260509150015 | 54 | 151 | 2.0 | 7.0 | 0.00 | 0.79 | 0.55 | 86 | 1013.3 |
| 20260509144509 | 53 | 115 | 0.0 | 3.0 | 0.00 | 0.99 | 0.55 | 90 | 1013.0 |
| 20260509143059 | 52 | 140 | 0.0 | 4.0 | 0.00 | 0.99 | 0.55 | 93 | 1013.4 |
| 20260509141556 | 51 | 28 | 0.0 | 5.0 | 0.00 | 0.99 | 0.55 | 95 | 1013.6 |
| 20260509140104 | 50 | 74 | 0.0 | 2.0 | 0.00 | 0.99 | 0.55 | 96 | 1014.0 |
| 20260509134551 | 48 | 32 | 0.0 | 1.0 | 0.00 | 1.02 | 0.55 | 96 | 1014.0 |
| 20260509133044 | 47 | 32 | 0.0 | 2.0 | 0.00 | 1.02 | 0.55 | 96 | 1014.3 |
| 20260509131552 | 46 | 28 | 0.0 | 1.0 | 0.00 | 1.02 | 0.55 | 96 | 1014.4 |
| 20260509130036 | 45 | 341 | 0.0 | 1.0 | 0.00 | 1.02 | 0.55 | 96 | 1014.5 |
| 20260509124536 | 44 | 341 | 0.0 | 0.0 | 0.00 | 1.02 | 0.55 | 95 | 1014.6 |
| 20260509123028 | 43 | 341 | 0.0 | 0.0 | 0.00 | 1.02 | 0.55 | 95 | 1014.5 |
| 20260509121533 | 42 | 341 | 0.0 | 0.0 | 0.00 | 1.02 | 0.55 | 94 | 1014.3 |
| 20260509120023 | 42 | 341 | 0.0 | 2.0 | 0.18 | 1.02 | 0.55 | 94 | 1014.5 |
| 20260509114520 | 41 | 341 | 0.0 | 0.0 | 0.28 | 1.02 | 0.55 | 93 | 1014.5 |
| 20260509113019 | 41 | 340 | 0.0 | 1.0 | 0.28 | 1.02 | 0.55 | 93 | 1014.9 |
| 20260509111519 | 41 | 340 | 0.0 | 0.0 | 0.28 | 1.02 | 0.55 | 93 | 1015.1 |
| 20260509110016 | 40 | 340 | 0.0 | 1.0 | 0.11 | 0.84 | 0.37 | 92 | 1015.3 |
| 20260509104514 | 40 | 340 | 0.0 | 0.0 | 0.00 | 0.73 | 0.26 | 91 | 1015.0 |
| 20260509103012 | 39 | 340 | 0.0 | 1.0 | 0.00 | 0.73 | 0.26 | 91 | 1014.8 |
| 20260509101510 | 38 | 340 | 0.0 | 0.0 | 0.00 | 0.73 | 0.26 | 91 | 1014.5 |
| 20260509100008 | 38 | 340 | 0.0 | 0.0 | 0.00 | 0.73 | 0.26 | 91 | 1014.1 |
| 20260509094503 | 37 | 340 | 0.0 | 0.0 | 0.00 | 0.73 | 0.26 | 92 | 1013.7 |
| 20260509093003 | 37 | 340 | 0.0 | 0.0 | 0.00 | 0.73 | 0.26 | 92 | 1013.6 |
| 20260509091503 | 36 | 340 | 0.0 | 0.0 | 0.00 | 0.73 | 0.26 | 92 | 1013.4 |
| 20260509090001 | 36 | 340 | 0.0 | 1.0 | 0.00 | 0.73 | 0.26 | 91 | 1013.7 |
| 20260509084604 | 35 | 340 | 0.0 | 0.0 | 0.00 | 0.73 | 0.26 | 90 | 1013.4 |
| 20260509083102 | 36 | 340 | 0.0 | 0.0 | 0.00 | 0.73 | 0.26 | 90 | 1013.4 |